Weather in Volhov

Russia / Saint-Petersburg and Leningrad Oblast     59°55′00″N   32°19′53″E
temp.,
°C
wind,
m/s
gust,
m/s
humid.,
%
clouds,
%
prec.,
mm/h
press.,
hPa
HPBL,
m
13 may, thu
thu1300:00+15se22660 0.0 101933
03:00+14se28785 0.0 1018171
06:00+14se277794 0.0 1017155
09:00+19se48585 0.2 1016730
12:00+22sse575298 0.1 10151825
15:00+21sse375250 0.5 10141620
18:00+22se35456 0.0 10122144
21:00+15sse2266100 0.0 101225
14 may, fri
fri1400:00+13s226679 0.0 101121
03:00+11s3890100 0.9 1011276
06:00+11ssw2794100 2.8 1011368
09:00+13s477737 2.8 1012901
12:00+17ssw57475 0.0 10121707
15:00+19ssw574378 0.0 10122069
18:00+16s376127 0.0 1012760
21:00+13se237724 0.0 101154
15 may, sat
sat1500:00+11ese22849 0.0 101140
03:00+10se238725 0.0 101044
06:00+11ese25835 0.0 1009121
09:00+18ese246061 0.0 1009504
12:00+21se3454100 0.1 10081353
15:00+19e336389 0.9 1007772
18:00+18ne2574100 2.1 1006528
21:00+14n2398100 5.9 100585
16 may, sun
sun1600:00+12n2499100 1.8 100592
03:00+12n2399100 2.4 100599
06:00+12n2498100 1.5 1006173
09:00+12nne2598100 2.0 1006161
12:00+12n2497100 0.1 1008197
15:00+15nne2590100 0.2 1009513
18:00+15nne3584100 0.0 1009471
21:00+11n119753 0.0 101021
17 may, mon
mon1700:00+10nne00975 0.0 101110
03:00+10ene119734 0.0 101210
06:00+11ese12945 0.0 101374
09:00+16e23660 0.0 1013476
12:00+20ese34525 0.0 10131257
15:00+23se354778 0.0 10121943
18:00+21ese4759100 0.0 1011531
21:00+18e41172100 0.0 1010362